{"data":{"norad_id":51120,"epoch":"2026-09-20T03:44:08.299104Z","epoch_age_seconds":78214,"freshness":"FRESH","line1":"1 51120U 22005S   26263.15565161  .00000076  00000+0  13399-4 0  9998","line2":"2 51120  53.1597 127.2736 0001197  87.0725 273.0414 15.34386428258354","mean_motion":15.34386428,"eccentricity":0.0001197,"inclination_deg":53.1597,"raan_deg":127.2736,"arg_perigee_deg":87.0725,"mean_anomaly_deg":273.0414,"bstar":1.3399e-5,"rev_number":25835,"period_min":93.848588186287,"perigee_km":461.92472594327,"apogee_km":463.56243275396,"semimajor_km":6840.8805793486,"source":"CELESTRAK","updated_at":"2026-09-20T09:00:39.586863Z"}}